Year,Month,Day,Hour,Minute,Value (Times are PST for temperature in C)
2021,06,08,00,00,9.10
2021,06,08,00,01,9.10
2021,06,08,00,02,9.10
2021,06,08,00,03,9.00
2021,06,08,00,04,9.00
2021,06,08,00,05,9.00
2021,06,08,00,06,9.00
2021,06,08,00,07,8.90
2021,06,08,00,08,8.90
2021,06,08,00,09,8.90
2021,06,08,00,10,8.90
2021,06,08,00,11,8.90
2021,06,08,00,12,8.90
2021,06,08,00,13,8.80
2021,06,08,00,14,8.80
2021,06,08,00,15,8.80
2021,06,08,00,16,8.80
2021,06,08,00,17,8.80
2021,06,08,00,18,8.70
2021,06,08,00,19,8.70
2021,06,08,00,20,8.70
2021,06,08,00,21,8.70
2021,06,08,00,22,8.70
2021,06,08,00,23,8.60
2021,06,08,00,24,8.60
2021,06,08,00,25,8.60
2021,06,08,00,26,8.60
2021,06,08,00,27,8.60
2021,06,08,00,28,8.50
2021,06,08,00,29,8.50
2021,06,08,00,30,8.50
2021,06,08,00,31,8.40
2021,06,08,00,32,8.40
2021,06,08,00,33,8.40
2021,06,08,00,34,8.40
2021,06,08,00,35,8.30
2021,06,08,00,36,8.30
2021,06,08,00,37,8.30
2021,06,08,00,38,8.30
2021,06,08,00,39,8.30
2021,06,08,00,40,8.30
2021,06,08,00,41,8.30
2021,06,08,00,42,8.20
2021,06,08,00,43,8.20
2021,06,08,00,44,8.20
2021,06,08,00,45,8.20
2021,06,08,00,46,8.20
2021,06,08,00,47,8.20
2021,06,08,00,48,8.20
2021,06,08,00,49,8.20
2021,06,08,00,50,8.20
2021,06,08,00,51,8.20
2021,06,08,00,52,8.10
2021,06,08,00,53,8.10
2021,06,08,00,54,8.10
2021,06,08,00,55,8.10
2021,06,08,00,56,8.10
2021,06,08,00,57,8.10
2021,06,08,00,58,8.10
2021,06,08,00,59,8.10
2021,06,08,01,00,8.10
2021,06,08,01,01,8.00
2021,06,08,01,02,8.00
2021,06,08,01,03,8.00
2021,06,08,01,04,8.00
2021,06,08,01,05,8.00
2021,06,08,01,06,8.00
2021,06,08,01,07,7.90
2021,06,08,01,08,7.90
2021,06,08,01,09,7.90
2021,06,08,01,10,7.90
2021,06,08,01,11,7.90
2021,06,08,01,12,7.90
2021,06,08,01,13,7.90
2021,06,08,01,14,7.90
2021,06,08,01,15,7.90
2021,06,08,01,16,7.90
2021,06,08,01,17,7.80
2021,06,08,01,18,7.80
2021,06,08,01,19,7.80
2021,06,08,01,20,7.80
2021,06,08,01,21,7.80
2021,06,08,01,22,7.80
2021,06,08,01,23,7.80
2021,06,08,01,24,7.80
2021,06,08,01,25,7.80
2021,06,08,01,26,7.80
2021,06,08,01,27,7.80
2021,06,08,01,28,7.80
2021,06,08,01,29,7.80
2021,06,08,01,30,7.80
2021,06,08,01,31,7.80
2021,06,08,01,32,7.80
2021,06,08,01,33,7.80
2021,06,08,01,34,7.80
2021,06,08,01,35,7.80
2021,06,08,01,36,7.80
2021,06,08,01,37,7.80
2021,06,08,01,38,7.80
2021,06,08,01,39,7.80
2021,06,08,01,40,7.80
2021,06,08,01,41,7.80
2021,06,08,01,42,7.80
2021,06,08,01,43,7.80
2021,06,08,01,44,7.80
2021,06,08,01,45,7.80
2021,06,08,01,46,7.80
2021,06,08,01,47,7.80
2021,06,08,01,48,7.80
2021,06,08,01,49,7.80
2021,06,08,01,50,7.80
2021,06,08,01,51,7.80
2021,06,08,01,52,7.80
2021,06,08,01,53,7.80
2021,06,08,01,54,7.80
2021,06,08,01,55,7.80
2021,06,08,01,56,7.80
2021,06,08,01,57,7.80
2021,06,08,01,58,7.80
2021,06,08,01,59,7.80
2021,06,08,02,00,7.80
2021,06,08,02,01,7.80
2021,06,08,02,02,7.80
2021,06,08,02,03,7.80
2021,06,08,02,04,7.80
2021,06,08,02,05,7.80
2021,06,08,02,06,7.70
2021,06,08,02,07,7.70
2021,06,08,02,08,7.70
2021,06,08,02,09,7.70
2021,06,08,02,10,7.70
2021,06,08,02,11,7.70
2021,06,08,02,12,7.70
2021,06,08,02,13,7.70
2021,06,08,02,14,7.60
2021,06,08,02,15,7.60
2021,06,08,02,16,7.60
2021,06,08,02,17,7.60
2021,06,08,02,18,7.60
2021,06,08,02,19,7.60
2021,06,08,02,20,7.60
2021,06,08,02,21,7.60
2021,06,08,02,22,7.60
2021,06,08,02,23,7.50
2021,06,08,02,24,7.50
2021,06,08,02,25,7.50
2021,06,08,02,26,7.50
2021,06,08,02,27,7.50
2021,06,08,02,28,7.50
2021,06,08,02,29,7.40
2021,06,08,02,30,7.40
2021,06,08,02,31,7.40
2021,06,08,02,32,7.40
2021,06,08,02,33,7.40
2021,06,08,02,34,7.40
2021,06,08,02,35,7.40
2021,06,08,02,36,7.40
2021,06,08,02,37,7.30
2021,06,08,02,38,7.30
2021,06,08,02,39,7.30
2021,06,08,02,40,7.30
2021,06,08,02,41,7.30
2021,06,08,02,42,7.30
2021,06,08,02,43,7.30
2021,06,08,02,44,7.30
2021,06,08,02,45,7.20
2021,06,08,02,46,7.20
2021,06,08,02,47,7.20
2021,06,08,02,48,7.20
2021,06,08,02,49,7.20
2021,06,08,02,50,7.20
2021,06,08,02,51,7.20
2021,06,08,02,52,7.20
2021,06,08,02,53,7.20
2021,06,08,02,54,7.20
2021,06,08,02,55,7.10
2021,06,08,02,56,7.10
2021,06,08,02,57,7.10
2021,06,08,02,58,7.10
2021,06,08,02,59,7.10
2021,06,08,03,00,7.10
2021,06,08,03,01,7.10
2021,06,08,03,02,7.10
2021,06,08,03,03,7.10
2021,06,08,03,04,7.10
2021,06,08,03,05,7.10
2021,06,08,03,06,7.00
2021,06,08,03,07,7.00
2021,06,08,03,08,7.00
2021,06,08,03,09,7.00
2021,06,08,03,10,7.00
2021,06,08,03,11,7.00
2021,06,08,03,12,7.00
2021,06,08,03,13,7.00
2021,06,08,03,14,7.00
2021,06,08,03,15,7.00
2021,06,08,03,16,6.90
2021,06,08,03,17,6.90
2021,06,08,03,18,6.90
2021,06,08,03,19,7.00
2021,06,08,03,20,7.00
2021,06,08,03,21,7.00
2021,06,08,03,22,7.00
2021,06,08,03,23,7.00
2021,06,08,03,24,7.10
2021,06,08,03,25,7.10
2021,06,08,03,26,7.10
2021,06,08,03,27,7.10
2021,06,08,03,28,7.10
2021,06,08,03,29,7.10
2021,06,08,03,30,7.10
2021,06,08,03,31,7.20
2021,06,08,03,32,7.20
2021,06,08,03,33,7.20
2021,06,08,03,34,7.20
2021,06,08,03,35,7.20
2021,06,08,03,36,7.30
2021,06,08,03,37,7.30
2021,06,08,03,38,7.40
2021,06,08,03,39,7.40
2021,06,08,03,40,7.50
2021,06,08,03,41,7.50
2021,06,08,03,42,7.50
2021,06,08,03,43,7.60
2021,06,08,03,44,7.60
2021,06,08,03,45,7.60
2021,06,08,03,46,7.60
2021,06,08,03,47,7.70
2021,06,08,03,48,7.70
2021,06,08,03,49,7.70
2021,06,08,03,50,7.70
2021,06,08,03,51,7.80
2021,06,08,03,52,7.80
2021,06,08,03,53,7.80
2021,06,08,03,54,7.80
2021,06,08,03,55,7.90
2021,06,08,03,56,7.90
2021,06,08,03,57,7.90
2021,06,08,03,58,8.00
2021,06,08,03,59,8.00
2021,06,08,04,00,8.10
2021,06,08,04,01,8.10
2021,06,08,04,02,8.10
2021,06,08,04,03,8.10
2021,06,08,04,04,8.10
2021,06,08,04,05,8.10
2021,06,08,04,06,8.10
2021,06,08,04,07,8.10
2021,06,08,04,08,8.10
2021,06,08,04,09,8.20
2021,06,08,04,10,8.20
2021,06,08,04,11,8.20
2021,06,08,04,12,8.20
2021,06,08,04,13,8.20
2021,06,08,04,14,8.20
2021,06,08,04,15,8.30
2021,06,08,04,16,8.30
2021,06,08,04,17,8.30
2021,06,08,04,18,8.30
2021,06,08,04,19,8.30
2021,06,08,04,20,8.30
2021,06,08,04,21,8.30
2021,06,08,04,22,8.30
2021,06,08,04,23,8.30
2021,06,08,04,24,8.30
2021,06,08,04,25,8.30
2021,06,08,04,26,8.30
2021,06,08,04,27,8.30
2021,06,08,04,28,8.30
2021,06,08,04,29,8.30
2021,06,08,04,30,8.30
2021,06,08,04,31,8.30
2021,06,08,04,32,8.30
2021,06,08,04,33,8.30
2021,06,08,04,34,8.30
2021,06,08,04,35,8.30
2021,06,08,04,36,8.30
2021,06,08,04,37,8.30
2021,06,08,04,38,8.30
2021,06,08,04,39,8.30
2021,06,08,04,40,8.20
2021,06,08,04,41,8.20
2021,06,08,04,42,8.20
2021,06,08,04,43,8.20
2021,06,08,04,44,8.20
2021,06,08,04,45,8.20
2021,06,08,04,46,8.20
2021,06,08,04,47,8.20
2021,06,08,04,48,8.20
2021,06,08,04,49,8.10
2021,06,08,04,50,8.10
2021,06,08,04,51,8.10
2021,06,08,04,52,8.10
2021,06,08,04,53,8.10
2021,06,08,04,54,8.00
2021,06,08,04,55,8.00
2021,06,08,04,56,8.00
2021,06,08,04,57,7.90
2021,06,08,04,58,7.90
2021,06,08,04,59,7.90
2021,06,08,05,00,7.90
2021,06,08,05,01,7.80
2021,06,08,05,02,7.80
2021,06,08,05,03,7.80
2021,06,08,05,04,7.80
2021,06,08,05,05,7.80
2021,06,08,05,06,7.70
2021,06,08,05,07,7.70
2021,06,08,05,08,7.70
2021,06,08,05,09,7.70
2021,06,08,05,10,7.70
2021,06,08,05,11,7.60
2021,06,08,05,12,7.60
2021,06,08,05,13,7.60
2021,06,08,05,14,7.60
2021,06,08,05,15,7.50
2021,06,08,05,16,7.50
2021,06,08,05,17,7.50
2021,06,08,05,18,7.40
2021,06,08,05,19,7.40
2021,06,08,05,20,7.40
2021,06,08,05,21,7.40
2021,06,08,05,22,7.40
2021,06,08,05,23,7.40
2021,06,08,05,24,7.40
2021,06,08,05,25,7.40
2021,06,08,05,26,7.40
2021,06,08,05,27,7.40
2021,06,08,05,28,7.40
2021,06,08,05,29,7.40
2021,06,08,05,30,7.40
2021,06,08,05,31,7.30
2021,06,08,05,32,7.30
2021,06,08,05,33,7.30
2021,06,08,05,34,7.30
2021,06,08,05,35,7.30
2021,06,08,05,36,7.30
2021,06,08,05,37,7.30
2021,06,08,05,38,7.30
2021,06,08,05,39,7.30
2021,06,08,05,40,7.30
2021,06,08,05,41,7.20
2021,06,08,05,42,7.20
2021,06,08,05,43,7.20
2021,06,08,05,44,7.20
2021,06,08,05,45,7.20
2021,06,08,05,46,7.20
2021,06,08,05,47,7.20
2021,06,08,05,48,7.20
2021,06,08,05,49,7.20
2021,06,08,05,50,7.20
2021,06,08,05,51,7.20
2021,06,08,05,52,7.20
2021,06,08,05,53,7.10
2021,06,08,05,54,7.10
2021,06,08,05,55,7.10
2021,06,08,05,56,7.10
2021,06,08,05,57,7.10
2021,06,08,05,58,7.10
2021,06,08,05,59,7.10
2021,06,08,06,00,7.10
2021,06,08,06,01,7.10
2021,06,08,06,02,7.10
2021,06,08,06,03,7.10
2021,06,08,06,04,7.10
2021,06,08,06,05,7.10
2021,06,08,06,06,7.10
2021,06,08,06,07,7.10
2021,06,08,06,08,7.10
2021,06,08,06,09,7.10
2021,06,08,06,10,7.10
2021,06,08,06,11,7.10
2021,06,08,06,12,7.10
2021,06,08,06,13,7.10
2021,06,08,06,14,7.10
2021,06,08,06,15,7.10
2021,06,08,06,16,7.20
2021,06,08,06,17,7.20
2021,06,08,06,18,7.20
2021,06,08,06,19,7.20
2021,06,08,06,20,7.20
2021,06,08,06,21,7.20
2021,06,08,06,22,7.20
2021,06,08,06,23,7.20
2021,06,08,06,24,7.20
2021,06,08,06,25,7.20
2021,06,08,06,26,7.20
2021,06,08,06,27,7.20
2021,06,08,06,28,7.30
2021,06,08,06,29,7.30
2021,06,08,06,30,7.30
2021,06,08,06,31,7.30
2021,06,08,06,32,7.30
2021,06,08,06,33,7.30
2021,06,08,06,34,7.30
2021,06,08,06,35,7.30
2021,06,08,06,36,7.30
2021,06,08,06,37,7.30
2021,06,08,06,38,7.30
2021,06,08,06,39,7.30
2021,06,08,06,40,7.30
2021,06,08,06,41,7.30
2021,06,08,06,42,7.30
2021,06,08,06,43,7.30
2021,06,08,06,44,7.30
2021,06,08,06,45,7.30
2021,06,08,06,46,7.30
2021,06,08,06,47,7.30
2021,06,08,06,48,7.30
2021,06,08,06,49,7.30
2021,06,08,06,50,7.20
2021,06,08,06,51,7.20
2021,06,08,06,52,7.20
2021,06,08,06,53,7.30
2021,06,08,06,54,7.30
2021,06,08,06,55,7.20
2021,06,08,06,56,7.20
2021,06,08,06,57,7.20
2021,06,08,06,58,7.20
2021,06,08,06,59,7.20
2021,06,08,07,00,7.30
2021,06,08,07,01,7.30
2021,06,08,07,02,7.30
2021,06,08,07,03,7.30
2021,06,08,07,04,7.30
2021,06,08,07,05,7.30
2021,06,08,07,06,7.30
2021,06,08,07,07,7.30
2021,06,08,07,08,7.30
2021,06,08,07,09,7.30
2021,06,08,07,10,7.30
2021,06,08,07,11,7.40
2021,06,08,07,12,7.40
2021,06,08,07,13,7.40
2021,06,08,07,14,7.50
2021,06,08,07,15,7.50
2021,06,08,07,16,7.50
2021,06,08,07,17,7.60
2021,06,08,07,18,7.60
2021,06,08,07,19,7.60
2021,06,08,07,20,7.70
2021,06,08,07,21,7.70
2021,06,08,07,22,7.70
2021,06,08,07,23,7.70
2021,06,08,07,24,7.80
2021,06,08,07,25,7.80
2021,06,08,07,26,7.80
2021,06,08,07,27,7.80
2021,06,08,07,28,7.90
2021,06,08,07,29,7.90
2021,06,08,07,30,8.00
2021,06,08,07,31,8.00
2021,06,08,07,32,8.00
2021,06,08,07,33,8.10
2021,06,08,07,34,8.10
2021,06,08,07,35,8.20
2021,06,08,07,36,8.20
2021,06,08,07,37,8.30
2021,06,08,07,38,8.30
2021,06,08,07,39,8.40
2021,06,08,07,40,8.40
2021,06,08,07,41,8.50
2021,06,08,07,42,8.60
2021,06,08,07,43,8.70
2021,06,08,07,44,8.80
2021,06,08,07,45,8.90
2021,06,08,07,46,8.90
2021,06,08,07,47,9.00
2021,06,08,07,48,9.00
2021,06,08,07,49,9.10
2021,06,08,07,50,9.10
2021,06,08,07,51,9.10
2021,06,08,07,52,9.20
2021,06,08,07,53,9.20
2021,06,08,07,54,9.30
2021,06,08,07,55,9.40
2021,06,08,07,56,9.40
2021,06,08,07,57,9.50
2021,06,08,07,58,9.50
2021,06,08,07,59,9.60
2021,06,08,08,00,9.70
2021,06,08,08,01,9.70
2021,06,08,08,02,9.80
2021,06,08,08,03,9.80
2021,06,08,08,04,9.80
2021,06,08,08,05,9.90
2021,06,08,08,06,9.90
2021,06,08,08,07,10.00
2021,06,08,08,08,10.00
2021,06,08,08,09,10.10
2021,06,08,08,10,10.20
2021,06,08,08,11,10.20
2021,06,08,08,12,10.30
2021,06,08,08,13,10.40
2021,06,08,08,14,10.40
2021,06,08,08,15,10.50
2021,06,08,08,16,10.60
2021,06,08,08,17,10.60
2021,06,08,08,18,10.70
2021,06,08,08,19,10.70
2021,06,08,08,20,10.80
2021,06,08,08,21,10.90
2021,06,08,08,22,11.00
2021,06,08,08,23,11.10
2021,06,08,08,24,11.10
2021,06,08,08,25,11.20
2021,06,08,08,26,11.20
2021,06,08,08,27,11.30
2021,06,08,08,28,11.40
2021,06,08,08,29,11.40
2021,06,08,08,30,11.50
2021,06,08,08,31,11.60
2021,06,08,08,32,11.60
2021,06,08,08,33,11.70
2021,06,08,08,34,11.80
2021,06,08,08,35,11.90
2021,06,08,08,36,11.90
2021,06,08,08,37,12.00
2021,06,08,08,38,12.10
2021,06,08,08,39,12.10
2021,06,08,08,40,12.20
2021,06,08,08,41,12.20
2021,06,08,08,42,12.30
2021,06,08,08,43,12.30
2021,06,08,08,44,12.40
2021,06,08,08,45,12.40
2021,06,08,08,46,12.40
2021,06,08,08,47,12.50
2021,06,08,08,48,12.50
2021,06,08,08,49,12.60
2021,06,08,08,50,12.60
2021,06,08,08,51,12.60
2021,06,08,08,52,12.70
2021,06,08,08,53,12.70
2021,06,08,08,54,12.70
2021,06,08,08,55,12.70
2021,06,08,08,56,12.70
2021,06,08,08,57,12.80
2021,06,08,08,58,12.80
2021,06,08,08,59,12.80
2021,06,08,09,00,12.80
2021,06,08,09,01,12.80
2021,06,08,09,02,12.90
2021,06,08,09,03,12.90
2021,06,08,09,04,12.90
2021,06,08,09,05,12.90
2021,06,08,09,06,12.90
2021,06,08,09,07,12.90
2021,06,08,09,08,12.90
2021,06,08,09,09,12.90
2021,06,08,09,10,13.00
2021,06,08,09,11,13.00
2021,06,08,09,12,13.10
2021,06,08,09,13,13.10
2021,06,08,09,14,13.10
2021,06,08,09,15,13.10
2021,06,08,09,16,13.20
2021,06,08,09,17,13.20
2021,06,08,09,18,13.20
2021,06,08,09,19,13.30
2021,06,08,09,20,13.30
2021,06,08,09,21,13.30
2021,06,08,09,22,13.40
2021,06,08,09,23,13.40
2021,06,08,09,24,13.40
2021,06,08,09,25,13.50
2021,06,08,09,26,13.50
2021,06,08,09,27,13.60
2021,06,08,09,28,13.60
2021,06,08,09,29,13.60
2021,06,08,09,30,13.70
2021,06,08,09,31,13.70
2021,06,08,09,32,13.70
2021,06,08,09,33,13.80
2021,06,08,09,34,13.80
2021,06,08,09,35,13.80
2021,06,08,09,36,13.90
2021,06,08,09,37,13.90
2021,06,08,09,38,13.90
2021,06,08,09,39,13.90
2021,06,08,09,40,13.90
2021,06,08,09,41,14.00
2021,06,08,09,42,14.00
2021,06,08,09,43,14.10
2021,06,08,09,44,14.10
2021,06,08,09,45,14.20
2021,06,08,09,46,14.20
2021,06,08,09,47,14.20
2021,06,08,09,48,14.20
2021,06,08,09,49,14.20
2021,06,08,09,50,14.20
2021,06,08,09,51,14.20
2021,06,08,09,52,14.20
2021,06,08,09,53,14.20
2021,06,08,09,54,14.20
2021,06,08,09,55,14.30
2021,06,08,09,56,14.30
2021,06,08,09,57,14.30
2021,06,08,09,58,14.30
2021,06,08,09,59,14.30
2021,06,08,10,00,14.30
2021,06,08,10,01,14.30
2021,06,08,10,02,14.30
2021,06,08,10,03,14.30
2021,06,08,10,04,14.40
2021,06,08,10,05,14.50
2021,06,08,10,06,14.60
2021,06,08,10,07,14.60
2021,06,08,10,08,14.70
2021,06,08,10,09,14.70
2021,06,08,10,10,14.70
2021,06,08,10,11,14.70
2021,06,08,10,12,14.80
2021,06,08,10,13,14.90
2021,06,08,10,14,15.00
2021,06,08,10,15,15.10
2021,06,08,10,16,15.10
2021,06,08,10,17,15.30
2021,06,08,10,18,15.30
2021,06,08,10,19,15.40
2021,06,08,10,20,15.50
2021,06,08,10,21,15.60
2021,06,08,10,22,15.70
2021,06,08,10,23,15.70
2021,06,08,10,24,15.80
2021,06,08,10,25,15.80
2021,06,08,10,26,15.80
2021,06,08,10,27,15.90
2021,06,08,10,28,15.90
2021,06,08,10,29,15.90
2021,06,08,10,30,15.80
2021,06,08,10,31,15.80
2021,06,08,10,32,15.90
2021,06,08,10,33,15.80
2021,06,08,10,34,15.80
2021,06,08,10,35,15.90
2021,06,08,10,36,15.90
2021,06,08,10,37,15.90
2021,06,08,10,38,15.90
2021,06,08,10,39,15.90
2021,06,08,10,40,16.00
2021,06,08,10,41,16.00
2021,06,08,10,42,16.00
2021,06,08,10,43,16.00
2021,06,08,10,44,16.00
2021,06,08,10,45,16.10
2021,06,08,10,46,16.10
2021,06,08,10,47,16.00
2021,06,08,10,48,16.00
2021,06,08,10,49,16.00
2021,06,08,10,50,16.10
2021,06,08,10,51,16.10
2021,06,08,10,52,16.10
2021,06,08,10,53,16.10
2021,06,08,10,54,16.20
2021,06,08,10,55,16.20
2021,06,08,10,56,16.20
2021,06,08,10,57,16.20
2021,06,08,10,58,16.20
2021,06,08,10,59,16.30
2021,06,08,11,00,16.30
2021,06,08,11,01,16.30
2021,06,08,11,02,16.40
2021,06,08,11,03,16.40
2021,06,08,11,04,16.40
2021,06,08,11,05,16.50
2021,06,08,11,06,16.50
2021,06,08,11,07,16.50
2021,06,08,11,08,16.50
2021,06,08,11,09,16.50
2021,06,08,11,10,16.50
2021,06,08,11,11,16.50
2021,06,08,11,12,16.50
2021,06,08,11,13,16.50
2021,06,08,11,14,16.50
2021,06,08,11,15,16.40
2021,06,08,11,16,16.40
2021,06,08,11,17,16.30
2021,06,08,11,18,16.30
2021,06,08,11,19,16.30
2021,06,08,11,20,16.40
2021,06,08,11,21,16.50
2021,06,08,11,22,16.50
2021,06,08,11,23,16.50
2021,06,08,11,24,16.40
2021,06,08,11,25,16.40
2021,06,08,11,26,16.50
2021,06,08,11,27,16.50
2021,06,08,11,28,16.50
2021,06,08,11,29,16.50
2021,06,08,11,30,16.40
2021,06,08,11,31,16.40
2021,06,08,11,32,16.40
2021,06,08,11,33,16.50
2021,06,08,11,34,16.60
2021,06,08,11,35,16.60
2021,06,08,11,36,16.60
2021,06,08,11,37,16.70
2021,06,08,11,38,16.80
2021,06,08,11,39,16.80
2021,06,08,11,40,16.90
2021,06,08,11,41,16.90
2021,06,08,11,42,17.00
2021,06,08,11,43,17.10
2021,06,08,11,44,17.20
2021,06,08,11,45,17.20
2021,06,08,11,46,17.30
2021,06,08,11,47,17.40
2021,06,08,11,48,17.50
2021,06,08,11,49,17.60
2021,06,08,11,50,17.70
2021,06,08,11,51,17.70
2021,06,08,11,52,17.80
2021,06,08,11,53,17.90
2021,06,08,11,54,17.90
2021,06,08,11,55,17.80
2021,06,08,11,56,18.00
2021,06,08,11,57,18.00
2021,06,08,11,58,18.10
2021,06,08,11,59,18.00
2021,06,08,12,00,18.00
2021,06,08,12,01,18.10
2021,06,08,12,02,18.10
2021,06,08,12,03,18.20
2021,06,08,12,04,18.10
2021,06,08,12,05,18.10
2021,06,08,12,06,18.00
2021,06,08,12,07,17.90
2021,06,08,12,08,17.90
2021,06,08,12,09,17.90
2021,06,08,12,10,18.00
2021,06,08,12,11,18.10
2021,06,08,12,12,18.20
2021,06,08,12,13,18.20
2021,06,08,12,14,18.10
2021,06,08,12,15,18.20
2021,06,08,12,16,18.20
2021,06,08,12,17,18.20
2021,06,08,12,18,18.20
2021,06,08,12,19,18.20
2021,06,08,12,20,18.30
2021,06,08,12,21,18.30
2021,06,08,12,22,18.40
2021,06,08,12,23,18.40
2021,06,08,12,24,18.40
2021,06,08,12,25,18.30
2021,06,08,12,26,18.30
2021,06,08,12,27,18.30
2021,06,08,12,28,18.30
2021,06,08,12,29,18.30
2021,06,08,12,30,18.30
2021,06,08,12,31,18.30
2021,06,08,12,32,18.30
2021,06,08,12,33,18.40
2021,06,08,12,34,18.40
2021,06,08,12,35,18.40
2021,06,08,12,36,18.30
2021,06,08,12,37,18.20
2021,06,08,12,38,18.10
2021,06,08,12,39,18.10
2021,06,08,12,40,18.10
2021,06,08,12,41,18.10
2021,06,08,12,42,18.10
2021,06,08,12,43,18.00
2021,06,08,12,44,18.00
2021,06,08,12,45,18.10
2021,06,08,12,46,18.10
2021,06,08,12,47,18.10
2021,06,08,12,48,18.10
2021,06,08,12,49,18.20
2021,06,08,12,50,18.20
2021,06,08,12,51,18.30
2021,06,08,12,52,18.30
2021,06,08,12,53,18.30
2021,06,08,12,54,18.30
2021,06,08,12,55,18.20
2021,06,08,12,56,18.20
2021,06,08,12,57,18.10
2021,06,08,12,58,18.00
2021,06,08,12,59,17.90
2021,06,08,13,00,17.90
2021,06,08,13,01,17.90
2021,06,08,13,02,17.90
2021,06,08,13,03,18.00
2021,06,08,13,04,18.00
2021,06,08,13,05,18.00
2021,06,08,13,06,18.10
2021,06,08,13,07,18.10
2021,06,08,13,08,18.10
2021,06,08,13,09,18.10
2021,06,08,13,10,18.10
2021,06,08,13,11,18.20
2021,06,08,13,12,18.30
2021,06,08,13,13,18.30
2021,06,08,13,14,18.20
2021,06,08,13,15,18.20
2021,06,08,13,16,18.30
2021,06,08,13,17,18.30
2021,06,08,13,18,18.30
2021,06,08,13,19,18.40
2021,06,08,13,20,18.40
2021,06,08,13,21,18.40
2021,06,08,13,22,18.50
2021,06,08,13,23,18.50
2021,06,08,13,24,18.50
2021,06,08,13,25,18.60
2021,06,08,13,26,18.60
2021,06,08,13,27,18.70
2021,06,08,13,28,18.70
2021,06,08,13,29,18.70
2021,06,08,13,30,18.70
2021,06,08,13,31,18.80
2021,06,08,13,32,18.80
2021,06,08,13,33,18.80
2021,06,08,13,34,18.80
2021,06,08,13,35,18.90
2021,06,08,13,36,18.90
2021,06,08,13,37,19.00
2021,06,08,13,38,19.00
2021,06,08,13,39,19.00
2021,06,08,13,40,19.00
2021,06,08,13,41,18.90
2021,06,08,13,42,18.90
2021,06,08,13,43,18.90
2021,06,08,13,44,18.90
2021,06,08,13,45,18.80
2021,06,08,13,46,18.80
2021,06,08,13,47,18.80
2021,06,08,13,48,18.80
2021,06,08,13,49,18.90
2021,06,08,13,50,18.90
2021,06,08,13,51,18.90
2021,06,08,13,52,19.00
2021,06,08,13,53,19.10
2021,06,08,13,54,19.10
2021,06,08,13,55,19.00
2021,06,08,13,56,19.00
2021,06,08,13,57,19.00
2021,06,08,13,58,19.10
2021,06,08,13,59,19.10
2021,06,08,14,00,19.00
2021,06,08,14,01,19.00
2021,06,08,14,02,19.00
2021,06,08,14,03,19.00
2021,06,08,14,04,19.00
2021,06,08,14,05,19.00
2021,06,08,14,06,19.00
2021,06,08,14,07,19.00
2021,06,08,14,08,19.10
2021,06,08,14,09,19.10
2021,06,08,14,10,19.10
2021,06,08,14,11,19.00
2021,06,08,14,12,19.00
2021,06,08,14,13,18.90
2021,06,08,14,14,18.90
2021,06,08,14,15,18.90
2021,06,08,14,16,18.90
2021,06,08,14,17,18.90
2021,06,08,14,18,18.80
2021,06,08,14,19,18.80
2021,06,08,14,20,18.80
2021,06,08,14,21,18.80
2021,06,08,14,22,18.80
2021,06,08,14,23,18.80
2021,06,08,14,24,18.90
2021,06,08,14,25,18.90
2021,06,08,14,26,18.90
2021,06,08,14,27,19.00
2021,06,08,14,28,19.10
2021,06,08,14,29,19.20
2021,06,08,14,30,19.30
2021,06,08,14,31,19.30
2021,06,08,14,32,19.40
2021,06,08,14,33,19.50
2021,06,08,14,34,19.50
2021,06,08,14,35,19.60
2021,06,08,14,36,19.50
2021,06,08,14,37,19.50
2021,06,08,14,38,19.50
2021,06,08,14,39,19.50
2021,06,08,14,40,19.60
2021,06,08,14,41,19.50
2021,06,08,14,42,19.40
2021,06,08,14,43,19.40
2021,06,08,14,44,19.40
2021,06,08,14,45,19.40
2021,06,08,14,46,19.50
2021,06,08,14,47,19.50
2021,06,08,14,48,19.60
2021,06,08,14,49,19.70
2021,06,08,14,50,19.70
2021,06,08,14,51,19.80
2021,06,08,14,52,19.80
2021,06,08,14,53,19.90
2021,06,08,14,54,19.90
2021,06,08,14,55,20.00
2021,06,08,14,56,19.90
2021,06,08,14,57,19.90
2021,06,08,14,58,19.80
2021,06,08,14,59,19.70
2021,06,08,15,00,19.60
2021,06,08,15,01,19.60
2021,06,08,15,02,19.60
2021,06,08,15,03,19.60
2021,06,08,15,04,19.60
2021,06,08,15,05,19.50
2021,06,08,15,06,19.40
2021,06,08,15,07,19.40
2021,06,08,15,08,19.50
2021,06,08,15,09,19.50
2021,06,08,15,10,19.60
2021,06,08,15,11,19.60
2021,06,08,15,12,19.70
2021,06,08,15,13,19.70
2021,06,08,15,14,19.80
2021,06,08,15,15,19.80
2021,06,08,15,16,19.90
2021,06,08,15,17,19.90
2021,06,08,15,18,20.00
2021,06,08,15,19,20.00
2021,06,08,15,20,20.00
2021,06,08,15,21,20.00
2021,06,08,15,22,20.00
2021,06,08,15,23,20.00
2021,06,08,15,24,20.10
2021,06,08,15,25,20.10
2021,06,08,15,26,20.10
2021,06,08,15,27,20.10
2021,06,08,15,28,20.10
2021,06,08,15,29,20.10
2021,06,08,15,30,20.10
2021,06,08,15,31,20.10
2021,06,08,15,32,20.10
2021,06,08,15,33,20.10
2021,06,08,15,34,20.10
2021,06,08,15,35,20.10
2021,06,08,15,36,20.10
2021,06,08,15,37,20.10
2021,06,08,15,38,20.10
2021,06,08,15,39,20.00
2021,06,08,15,40,20.10
2021,06,08,15,41,20.10
2021,06,08,15,42,20.20
2021,06,08,15,43,20.20
2021,06,08,15,44,20.30
2021,06,08,15,45,20.30
2021,06,08,15,46,20.40
2021,06,08,15,47,20.50
2021,06,08,15,48,20.50
2021,06,08,15,49,20.60
2021,06,08,15,50,20.60
2021,06,08,15,51,20.60
2021,06,08,15,52,20.60
2021,06,08,15,53,20.50
2021,06,08,15,54,20.50
2021,06,08,15,55,20.50
2021,06,08,15,56,20.60
2021,06,08,15,57,20.60
2021,06,08,15,58,20.70
2021,06,08,15,59,20.70
2021,06,08,16,00,20.70
2021,06,08,16,01,20.60
2021,06,08,16,02,20.50
2021,06,08,16,03,20.40
2021,06,08,16,04,20.30
2021,06,08,16,05,20.30
2021,06,08,16,06,20.30
2021,06,08,16,07,20.30
2021,06,08,16,08,20.30
2021,06,08,16,09,20.30
2021,06,08,16,10,20.30
2021,06,08,16,11,20.20
2021,06,08,16,12,20.10
2021,06,08,16,13,20.10
2021,06,08,16,14,20.10
2021,06,08,16,15,20.10
2021,06,08,16,16,20.10
2021,06,08,16,17,20.10
2021,06,08,16,18,20.10
2021,06,08,16,19,20.20
2021,06,08,16,20,20.20
2021,06,08,16,21,20.20
2021,06,08,16,22,20.20
2021,06,08,16,23,20.20
2021,06,08,16,24,20.20
2021,06,08,16,25,20.20
2021,06,08,16,26,20.20
2021,06,08,16,27,20.30
2021,06,08,16,28,20.30
2021,06,08,16,29,20.30
2021,06,08,16,30,20.20
2021,06,08,16,31,20.20
2021,06,08,16,32,20.10
2021,06,08,16,33,20.10
2021,06,08,16,34,20.00
2021,06,08,16,35,19.90
2021,06,08,16,36,19.90
2021,06,08,16,37,19.90
2021,06,08,16,38,19.90
2021,06,08,16,39,20.00
2021,06,08,16,40,20.00
2021,06,08,16,41,19.90
2021,06,08,16,42,19.90
2021,06,08,16,43,20.00
2021,06,08,16,44,20.00
2021,06,08,16,45,20.00
2021,06,08,16,46,20.10
2021,06,08,16,47,20.10
2021,06,08,16,48,20.20
2021,06,08,16,49,20.20
2021,06,08,16,50,20.30
2021,06,08,16,51,20.30
2021,06,08,16,52,20.20
2021,06,08,16,53,20.10
2021,06,08,16,54,20.10
2021,06,08,16,55,20.00
2021,06,08,16,56,20.00
2021,06,08,16,57,19.90
2021,06,08,16,58,19.90
2021,06,08,16,59,19.90
2021,06,08,17,00,19.90
2021,06,08,17,01,19.90
2021,06,08,17,02,19.90
2021,06,08,17,03,19.80
2021,06,08,17,04,19.80
2021,06,08,17,05,19.80
2021,06,08,17,06,19.80
2021,06,08,17,07,19.70
2021,06,08,17,08,19.70
2021,06,08,17,09,19.70
2021,06,08,17,10,19.70
2021,06,08,17,11,19.70
2021,06,08,17,12,19.70
2021,06,08,17,13,19.70
2021,06,08,17,14,19.70
2021,06,08,17,15,19.70
2021,06,08,17,16,19.70
2021,06,08,17,17,19.60
2021,06,08,17,18,19.60
2021,06,08,17,19,19.60
2021,06,08,17,20,19.70
2021,06,08,17,21,19.70
2021,06,08,17,22,19.70
2021,06,08,17,23,19.80
2021,06,08,17,24,19.90
2021,06,08,17,25,19.90
2021,06,08,17,26,19.90
2021,06,08,17,27,20.00
2021,06,08,17,28,20.00
2021,06,08,17,29,20.00
2021,06,08,17,30,20.10
2021,06,08,17,31,20.10
2021,06,08,17,32,20.10
2021,06,08,17,33,20.10
2021,06,08,17,34,20.10
2021,06,08,17,35,20.10
2021,06,08,17,36,20.10
2021,06,08,17,37,20.10
2021,06,08,17,38,20.10
2021,06,08,17,39,20.10
2021,06,08,17,40,20.10